Temperature
22 22 21 21 24 26 28 29 30 30 29 29 28 28 27 26 25 23 22 22 21 20 20 20 20 20 19 19 19 19 19 19 19 19 19 19 19 19 19 19 19 19 18 18 19 18 18 18 18
22 21 22 24 25 27 28 30 30 29 29 28 28 27 27 25 24 23 22 21 21 20 20 20 20 20 19 19 19 19 19 19 19 19 19 19 19 19 19 19 19 18 18 18 18 18 18 18 18
22 22 24 26 27 28 28 30 30 30 29 28 28 27 26 24 23 22 22 22 21 20 20 20 20 20 20 19 19 19 19 19 19 19 19 19 19 18 18 18 18 18 18 18 18 18 18 18 18
22 24 26 27 28 29 30 30 31 30 29 29 28 26 24 24 23 22 22 22 21 20 20 20 20 20 20 19 19 19 19 19 19 19 19 19 18 18 18 18 18 18 18 18 18 18 18 19 18
24 26 27 28 30 30 31 31 31 30 30 29 27 26 24 23 23 22 22 22 21 21 20 20 20 20 20 19 19 19 19 19 19 19 19 19 19 19 18 18 18 18 18 18 18 18 18 18 18
26 27 27 29 30 31 31 31 31 30 30 29 27 26 23 23 23 23 22 22 22 21 20 20 20 20 20 20 19 19 19 19 19 19 19 19 19 19 19 19 18 18 18 18 18 18 18 18 18
27 27 28 30 30 30 31 31 31 30 30 29 28 26 24 23 23 23 22 22 22 21 21 20 20 20 20 20 19 19 19 19 19 19 19 19 19 19 19 19 19 19 18 18 18 18 18 18 18
29 29 30 30 30 30 31 31 30 30 30 29 28 26 24 23 23 23 22 22 22 21 21 20 20 20 20 20 19 19 19 19 19 19 19 19 19 18 18 19 19 19 19 19 18 19 19 19 19
30 30 29 30 30 31 31 31 30 30 29 28 28 26 24 23 23 23 22 22 22 21 21 21 20 20 19 19 19 19 19 19 19 19 18 18 18 18 18 18 19 19 19 19 19 19 19 19 19
31 30 30 32 32 32 31 31 30 30 29 27 26 25 24 24 24 23 23 22 22 21 21 21 20 20 20 19 19 19 19 19 18 18 18 18 18 18 18 18 18 19 19 19 19 19 19 19 19
32 31 32 33 32 32 32 31 30 30 29 27 26 25 24 24 24 24 23 23 22 21 21 21 20 20 20 20 19 19 19 19 18 18 18 18 18 18 18 18 18 19 19 19 19 19 19 19 18
33 33 33 33 32 32 32 31 31 30 28 27 26 25 25 24 24 24 24 23 22 21 21 20 20 20 20 20 19 19 19 19 19 19 18 18 18 18 18 18 18 19 18 18 18 19 18 18 18
33 33 32 32 32 32 31 31 30 29 28 27 26 25 25 25 24 24 23 23 22 21 21 20 20 20 19 19 19 19 19 19 19 19 18 18 18 18 18 19 19 18 19 19 19 18 18 19 19
33 33 33 32 32 32 32 31 30 29 28 27 26 26 25 25 24 24 23 22 22 21 21 20 20 20 19 19 19 19 19 19 19 18 18 18 18 18 18 19 18 19 19 19 19 19 19 19 19
32 32 32 33 33 32 32 30 30 29 28 27 27 26 25 25 24 24 23 22 21 21 20 20 20 20 19 19 19 19 19 19 19 18 18 18 18 18 18 18 18 19 19 19 19 19 19 19 19
32 30 30 32 33 33 32 29 30 29 29 28 27 26 25 25 24 24 23 22 21 21 20 20 20 19 19 19 19 19 19 19 19 19 18 18 18 18 18 18 18 19 18 19 19 19 19 19 19
31 30 30 31 33 33 32 29 30 30 29 28 27 27 26 25 24 24 23 22 21 20 20 20 20 19 19 19 19 19 19 19 19 19 19 18 18 18 18 18 18 18 18 18 19 19 19 19 19
31 31 31 31 33 33 32 30 31 31 30 29 28 27 26 25 25 24 23 22 21 20 20 20 19 19 19 19 19 19 19 19 19 19 19 19 18 18 18 18 18 18 18 18 19 19 19 19 19
32 32 32 32 34 33 32 31 31 31 31 29 28 27 26 25 25 24 23 22 21 20 20 20 19 19 19 19 19 18 18 18 18 18 19 18 18 18 18 18 18 18 18 18 18 19 18 18 19
33 32 32 32 33 33 32 31 31 31 31 30 29 28 27 26 25 24 23 22 21 20 20 20 19 19 19 19 19 18 18 18 18 18 18 18 18 18 18 18 18 18 18 18 18 18 18 18 18
33 33 32 32 32 32 31 30 31 31 31 30 30 28 28 26 25 24 23 22 21 21 20 20 20 19 19 19 19 18 18 18 18 18 18 18 18 18 18 18 18 18 18 18 18 18 18 18 18
33 34 33 33 32 31 31 29 29 30 30 30 30 29 28 27 25 24 23 22 22 21 20 20 20 19 19 19 18 18 18 18 18 18 18 18 18 18 18 18 18 18 18 18 18 18 18 18 18
33 34 33 33 32 32 31 30 29 30 30 30 30 29 28 27 26 24 23 22 22 21 20 20 20 19 19 19 19 18 18 18 18 18 18 18 18 18 18 18 18 18 18 18 18 18 18 18 18
34 34 33 33 32 30 31 31 29 30 30 30 30 29 28 27 26 25 24 23 22 21 20 20 20 19 19 19 18 18 18 18 18 18 18 18 18 18 18 18 18 18 18 18 18 18 18 18 18
34 32 31 30 30 29 31 31 30 31 31 31 30 29 28 27 26 25 24 23 22 21 21 20 20 19 19 19 18 18 18 18 18 18 18 18 18 18 18 18 18 18 18 18 18 18 18 18 18
33 33 31 29 29 30 31 30 30 31 31 31 30 29 28 27 26 25 24 23 22 21 21 20 20 19 19 19 18 18 18 18 18 18 18 18 18 18 18 18 18 18 18 18 18 18 18 18 18
33 33 33 32 31 30 30 29 30 31 31 31 30 29 28 27 26 25 24 23 22 21 21 20 20 19 19 18 18 18 18 18 17 17 17 17 17 17 18 18 18 18 18 18 18 18 17 17 17
34 33 32 31 29 30 30 29 28 29 30 30 30 29 27 26 25 24 24 23 22 21 21 20 20 19 19 18 18 18 18 18 17 17 17 17 17 17 17 17 17 17 17 17 17 17 17 17 17
33 32 32 31 31 30 29 28 29 29 29 29 29 28 27 26 25 24 23 23 22 21 21 20 20 19 18 18 18 18 17 17 17 17 17 17 17 17 17 17 17 17 17 17 17 17 17 17 17
33 33 32 30 30 30 29 28 30 30 30 29 28 27 26 25 25 24 23 22 22 21 20 19 19 19 18 18 18 18 17 17 17 17 17 17 17 17 17 17 17 17 17 17 17 17 17 17 17
Wind_Speed
10 10 9 5 4 0 9 13 15 14 14 14 13 13 16 15 11 10 8 13 15 14 14 14 13 13 14 14 14 14 13 13 12 12 12 12 12 12 13 13 12 11 11 11 11 10 10 10 10
9 10 7 4 1 6 10 12 13 12 11 11 13 15 17 16 14 11 10 13 15 15 14 14 13 13 14 14 14 13 13 13 12 11 11 11 11 12 12 11 11 10 10 10 10 9 9 9 9
10 11 5 2 4 8 10 11 12 12 11 11 12 13 12 11 12 9 11 13 15 15 16 15 14 14 14 14 13 13 12 12 12 11 11 11 11 11 11 10 10 9 8 8 8 8 8 8 8
7 6 4 0 8 10 11 10 10 11 11 10 12 11 11 11 11 12 12 14 15 15 16 15 15 14 13 13 13 12 12 11 11 11 10 10 10 10 10 10 9 9 8 6 7 7 7 7 6
7 4 2 4 10 12 10 10 11 12 12 13 15 14 12 13 14 14 12 14 14 15 16 16 15 15 14 13 12 12 11 11 10 10 10 9 9 9 9 8 8 8 7 7 7 6 6 6 5
4 2 1 7 11 11 10 10 12 13 13 14 15 14 10 11 13 12 11 12 14 14 15 15 15 15 14 13 13 12 12 11 10 10 9 9 9 9 8 7 6 7 6 6 6 6 6 6 5
5 2 2 9 11 10 10 10 12 12 11 11 13 12 10 11 11 11 11 11 12 13 14 13 14 14 14 13 13 12 12 11 10 10 9 9 9 8 7 6 5 6 6 6 6 6 6 5 6
3 2 5 9 11 10 10 11 11 11 12 10 9 10 11 12 11 11 11 11 10 10 11 11 12 13 13 13 12 12 11 10 9 9 9 8 8 7 6 6 5 6 6 6 6 5 6 6 6
2 1 5 8 9 8 10 11 11 12 12 12 13 15 16 15 13 11 11 11 9 9 8 8 9 10 10 11 13 12 10 9 9 7 7 7 6 6 6 6 6 6 6 6 6 6 7 7 8
1 3 7 7 9 9 10 10 9 10 12 13 15 17 16 14 12 11 11 11 10 9 8 7 7 7 8 9 10 9 8 7 6 5 5 4 4 4 5 8 7 6 6 7 8 8 8 8 7
4 5 6 7 9 9 9 9 8 10 10 11 15 16 14 12 10 10 10 10 10 9 7 8 7 6 6 6 7 5 6 5 5 4 2 2 2 3 4 5 6 6 7 6 7 8 8 8 6
3 4 5 7 8 8 8 9 10 11 11 12 14 14 12 11 9 9 9 10 11 9 8 8 8 6 5 5 4 5 4 4 3 3 1 1 1 1 2 2 3 4 4 5 5 5 6 5 4
2 4 5 6 7 9 9 9 10 12 13 14 14 12 11 10 9 8 9 10 10 9 9 9 9 6 5 4 2 4 4 4 4 3 1 1 1 1 1 1 1 2 2 3 2 2 2 1 2
3 3 3 5 6 7 9 9 9 10 12 13 13 11 10 9 9 8 9 9 8 8 8 9 9 7 5 3 2 2 4 4 4 3 2 1 2 1 0 0 0 1 1 0 1 1 1 2 1
0 0 2 4 6 6 7 8 7 9 12 11 11 9 9 9 9 9 9 9 9 7 7 7 8 8 5 3 2 3 3 4 4 4 3 1 1 1 1 1 1 1 1 1 1 1 1 2 2
4 3 4 3 5 6 4 7 8 9 11 10 10 9 8 8 8 8 9 9 9 8 7 5 6 7 6 4 2 2 2 3 3 4 4 2 1 1 1 0 1 1 2 1 1 1 1 1 1
7 5 4 3 3 6 5 7 8 9 10 10 9 9 8 8 7 8 10 10 10 8 7 5 5 6 4 3 2 2 2 2 2 3 3 3 2 2 2 1 1 2 1 0 1 1 0 0 1
6 3 3 3 3 3 5 9 9 9 9 10 8 9 8 8 8 8 9 10 10 9 7 6 5 5 4 3 2 1 2 2 2 2 3 3 2 2 2 2 1 2 1 0 1 1 1 1 2
6 5 4 2 2 3 4 7 8 8 8 9 9 9 9 8 8 8 8 9 10 9 8 7 5 5 4 2 2 2 2 2 1 2 3 3 3 2 3 2 1 1 1 1 1 1 1 1 1
7 6 3 2 2 2 3 4 6 6 7 8 9 9 9 9 9 8 9 9 9 8 8 7 6 6 4 3 3 3 2 2 2 1 2 2 2 2 3 2 2 2 1 1 1 1 1 2 2
7 5 5 5 5 5 4 4 7 7 6 7 8 8 9 9 10 10 9 9 9 9 8 7 6 6 5 4 3 2 2 1 1 1 1 2 2 2 3 3 2 2 2 2 3 2 3 3 2
7 6 7 8 7 6 6 4 5 7 7 6 6 6 8 8 9 9 9 8 8 9 8 7 6 5 4 4 3 3 3 2 2 2 1 2 2 3 4 3 3 2 2 2 3 2 3 3 3
8 7 9 10 11 10 8 3 5 9 8 7 5 5 5 7 8 10 9 8 8 8 8 7 6 5 5 4 3 3 3 2 1 1 2 2 2 3 3 3 3 3 2 3 3 2 3 2 3
8 9 11 11 9 10 8 5 4 5 5 7 7 6 6 6 7 8 8 8 7 8 8 8 7 6 5 4 3 3 2 2 2 2 2 3 2 2 3 3 2 3 2 2 2 3 3 3 3
9 9 7 7 7 8 8 6 2 5 5 5 6 6 6 6 7 8 8 8 7 7 7 7 8 7 6 5 4 3 3 3 2 2 2 3 2 2 2 2 2 2 2 2 2 2 3 3 3
10 11 9 8 7 7 8 4 3 5 6 6 6 7 6 6 6 7 7 7 7 7 7 7 7 7 7 6 4 3 3 3 2 2 2 3 2 2 1 2 2 2 3 3 2 2 3 3 3
11 10 11 11 12 8 4 1 2 3 4 6 6 7 6 6 5 5 6 7 6 6 6 6 6 6 6 6 5 4 4 3 2 2 2 2 2 2 1 2 2 2 2 2 2 2 2 2 3
11 10 7 8 8 9 4 4 3 4 3 5 6 6 5 6 5 5 5 5 5 6 5 4 6 6 6 5 5 4 4 3 3 3 2 2 2 2 2 2 2 2 2 2 2 2 2 2 2
10 10 9 8 9 9 7 1 3 4 3 5 6 7 6 5 5 5 4 5 5 4 5 3 4 6 6 5 4 3 4 4 4 3 2 2 2 1 2 2 2 2 2 2 2 3 2 2 3
11 11 10 8 8 9 8 2 3 3 3 4 6 7 6 5 5 5 4 4 4 4 3 4 3 4 5 4 4 4 3 3 3 3 2 2 2 2 2 2 2 3 3 2 3 4 3 3 3
Wind_Direction
199 215 220 237 244 186 59 59 64 62 60 58 57 65 65 57 62 86 101 102 104 104 110 108 106 107 108 108 108 111 112 111 110 107 106 108 109 109 110 112 114 117 119 121 123 127 127 124 122
217 221 230 243 264 71 68 68 70 69 72 72 65 68 71 68 78 96 102 105 107 109 113 108 110 110 109 109 111 113 114 113 113 110 109 109 112 112 114 115 117 117 120 124 128 131 129 126 128
240 239 252 240 68 68 68 70 80 81 81 80 75 64 61 75 84 98 109 111 109 108 109 111 113 111 110 110 110 111 111 112 114 113 112 112 116 116 117 119 118 115 119 125 130 134 134 132 132
241 233 235 58 69 72 73 78 85 85 81 80 86 76 69 70 94 106 113 110 108 108 108 112 112 112 112 113 113 113 113 114 115 114 114 112 114 116 118 121 121 119 117 125 135 135 136 140 145
233 262 237 84 77 78 73 76 84 80 80 80 83 87 84 86 100 109 113 112 111 110 111 116 114 114 114 114 114 117 118 117 119 119 117 117 118 119 121 122 124 123 121 122 128 135 143 146 151
253 268 36 80 81 81 79 78 82 84 86 93 97 97 96 107 109 111 108 108 111 113 115 119 122 121 121 120 118 119 120 121 122 124 124 123 119 117 117 119 128 129 130 133 136 143 151 159 167
255 284 88 91 88 81 77 73 77 81 82 88 100 102 111 111 112 112 110 108 111 116 122 132 135 132 130 128 126 125 125 126 127 128 129 129 128 127 129 133 136 142 146 150 151 158 164 175 186
252 330 48 79 88 87 89 83 81 85 81 78 94 108 123 127 125 118 115 107 107 114 123 132 137 142 142 136 135 134 135 138 141 141 144 147 145 144 144 143 149 152 156 161 166 171 180 192 203
252 69 59 71 88 94 95 93 92 90 84 75 75 102 124 133 133 128 123 117 115 113 117 123 126 136 141 135 137 145 146 147 151 155 161 162 162 159 158 135 146 163 173 178 185 189 195 203 214
164 86 76 77 91 98 97 97 100 100 94 91 93 106 123 134 139 136 133 129 126 121 122 118 112 118 127 124 130 143 138 134 141 136 145 156 156 151 140 139 156 171 183 192 200 201 206 213 217
99 85 89 85 90 98 102 101 98 100 100 109 120 125 133 139 145 139 134 131 128 124 119 112 108 103 102 111 123 120 122 129 128 116 130 135 137 126 134 155 169 188 194 202 200 207 215 216 218
95 79 76 87 93 96 98 98 89 87 101 113 122 130 135 143 142 135 132 129 125 124 121 115 106 99 91 97 117 127 121 117 116 126 111 119 122 125 135 151 181 198 202 201 201 212 214 214 215
82 95 84 95 99 99 97 94 98 97 107 119 125 131 138 142 134 124 117 118 124 128 128 122 115 106 101 99 127 120 124 123 121 129 124 95 97 60 109 152 195 211 206 194 196 197 178 212 240
66 97 129 132 128 121 107 98 105 111 119 125 131 137 140 136 135 131 128 128 125 125 126 126 131 129 127 134 141 125 128 129 130 144 130 131 121 80 10 115 235 283 287 110 161 198 175 211 246
5 168 227 165 146 132 116 106 111 127 129 132 134 134 137 138 139 142 140 138 134 130 124 128 140 138 143 144 155 136 133 136 134 141 142 169 143 148 243 226 205 254 255 221 220 261 203 220 214
257 222 249 206 156 162 153 114 129 146 139 140 140 138 140 141 149 148 145 142 138 136 130 142 141 137 148 154 179 142 142 131 143 150 150 170 193 194 252 259 205 234 243 206 212 211 226 227 236
270 214 217 229 197 175 143 126 151 158 146 144 146 145 147 149 154 155 153 150 143 139 138 139 126 133 143 145 162 151 138 143 160 157 157 181 212 220 231 261 256 236 245 249 291 92 321 291 281
271 259 225 229 178 151 129 136 156 157 148 146 153 147 148 155 159 155 154 151 145 144 143 145 142 140 150 148 160 154 144 166 183 163 163 178 218 217 247 226 243 250 269 13 11 -0 318 294 277
260 265 271 276 174 166 146 141 154 158 158 153 155 155 157 162 156 150 148 145 146 149 151 154 154 150 159 159 171 187 184 201 202 191 166 175 211 223 256 280 264 252 250 251 292 292 277 275 264
264 264 278 291 260 264 170 168 162 164 170 167 164 163 162 167 158 154 155 154 155 153 154 153 165 165 175 171 185 194 186 207 199 199 147 187 207 222 239 259 259 244 232 231 243 256 272 271 233
270 273 266 268 268 256 204 206 185 175 181 172 166 165 166 165 163 162 165 167 164 165 170 170 163 164 181 174 186 192 175 222 221 199 175 198 212 219 260 256 262 264 240 227 227 222 236 257 269
277 289 273 266 266 263 241 238 213 175 182 179 169 165 167 164 161 163 170 176 175 175 175 164 160 161 171 181 189 196 194 209 215 206 202 218 215 225 232 240 246 259 264 263 249 219 240 251 258
279 287 275 269 270 268 258 241 219 184 184 174 164 160 160 160 164 167 175 176 176 172 170 163 155 162 167 177 190 207 214 207 210 203 212 230 234 236 235 230 235 243 245 263 282 279 261 261 268
277 278 275 267 270 269 267 256 218 177 168 165 159 159 161 158 157 160 165 163 168 168 169 163 156 167 173 183 184 200 227 230 227 227 229 237 233 233 239 242 240 240 244 250 266 269 268 272 286
262 270 266 260 251 259 264 260 170 123 134 141 141 142 152 149 151 152 155 158 167 170 169 167 163 172 176 181 190 199 225 233 234 238 239 255 258 251 236 257 258 254 263 249 249 264 272 264 266
254 261 267 275 278 269 258 226 136 114 113 117 123 136 137 132 137 145 154 159 166 169 167 172 170 172 176 182 190 202 213 231 241 246 249 253 258 251 240 242 242 251 262 263 252 245 255 259 260
254 263 274 276 276 272 261 151 113 109 119 117 119 118 124 128 129 137 149 158 164 171 168 175 165 171 178 184 188 193 204 222 239 241 247 256 267 260 260 232 237 246 259 270 272 265 263 268 263
249 267 281 278 281 279 244 211 192 193 167 129 117 114 110 117 120 125 140 156 162 170 162 164 163 171 176 185 194 202 203 210 231 243 248 262 270 283 282 278 266 255 247 252 268 269 271 277 284
240 249 259 271 280 284 282 260 135 166 168 137 127 119 112 112 115 117 125 141 144 147 150 153 166 170 177 185 188 194 199 207 219 235 241 253 269 265 258 271 279 274 262 255 261 269 263 264 276
251 249 251 260 270 280 285 243 121 113 97 109 118 109 101 95 101 113 119 122 129 136 143 156 168 177 178 180 183 193 201 206 219 229 234 241 261 261 256 253 260 266 268 260 257 264 267 259 264
Height
1484 1484 1485 1488 1487 1483 1479 1470 1466 1469 1471 1474 1475 1476 1480 1484 1490 1502 1503 1502 1502 1502 1502 1503 1504 1504 1505 1506 1507 1508 1509 1510 1512 1513 1514 1516 1517 1518 1519 1520 1522 1524 1525 1526 1528 1529 1531 1532 1533
1484 1486 1489 1487 1484 1487 1482 1470 1471 1473 1475 1476 1478 1480 1483 1490 1495 1500 1502 1504 1504 1504 1504 1505 1506 1506 1507 1508 1509 1510 1511 1512 1514 1515 1516 1517 1518 1520 1521 1522 1524 1525 1526 1527 1529 1530 1531 1533 1534
1485 1487 1488 1481 1479 1484 1482 1471 1471 1473 1476 1477 1481 1485 1489 1495 1499 1501 1504 1505 1505 1506 1506 1507 1508 1508 1509 1510 1512 1512 1513 1514 1516 1517 1518 1519 1520 1522 1523 1524 1525 1526 1527 1528 1530 1531 1532 1533 1535
1486 1488 1484 1481 1479 1474 1472 1471 1471 1474 1477 1478 1482 1489 1496 1499 1501 1503 1505 1507 1507 1508 1508 1509 1510 1510 1511 1513 1514 1515 1516 1517 1518 1519 1520 1521 1522 1523 1524 1525 1526 1527 1528 1529 1530 1531 1533 1534 1536
1487 1485 1481 1480 1475 1471 1470 1471 1472 1475 1478 1481 1485 1493 1499 1503 1504 1505 1507 1508 1509 1510 1510 1511 1512 1513 1513 1515 1516 1517 1518 1519 1520 1521 1522 1523 1524 1525 1526 1527 1528 1529 1529 1530 1531 1532 1533 1535 1537
1486 1482 1485 1483 1477 1472 1472 1473 1475 1477 1480 1483 1488 1494 1502 1505 1506 1508 1509 1510 1511 1512 1512 1513 1514 1515 1516 1517 1518 1519 1520 1521 1523 1523 1524 1525 1526 1527 1527 1528 1529 1530 1530 1531 1532 1533 1534 1536 1537
1485 1481 1482 1478 1479 1477 1475 1475 1476 1479 1481 1484 1488 1494 1503 1506 1508 1509 1511 1512 1513 1514 1514 1515 1516 1517 1518 1519 1520 1521 1522 1523 1524 1525 1526 1527 1527 1528 1529 1529 1529 1530 1531 1532 1533 1534 1535 1536 1538
1480 1478 1477 1476 1479 1480 1476 1478 1480 1482 1484 1487 1489 1494 1503 1507 1509 1510 1512 1513 1515 1516 1516 1517 1518 1519 1520 1521 1522 1523 1524 1525 1526 1527 1527 1528 1529 1529 1530 1530 1530 1531 1532 1533 1534 1535 1536 1538 1539
1479 1482 1484 1479 1479 1478 1476 1479 1482 1484 1487 1489 1491 1495 1502 1506 1509 1511 1512 1514 1516 1517 1518 1519 1520 1521 1522 1523 1524 1525 1526 1527 1527 1528 1529 1529 1530 1530 1531 1531 1531 1532 1533 1534 1535 1536 1537 1539 1540
1477 1481 1479 1472 1473 1475 1477 1479 1482 1485 1488 1493 1496 1500 1504 1507 1509 1511 1512 1514 1516 1518 1520 1521 1522 1523 1524 1525 1526 1527 1528 1528 1529 1530 1530 1531 1531 1532 1533 1533 1533 1533 1534 1535 1536 1537 1538 1539 1540
1474 1475 1473 1472 1473 1475 1477 1480 1482 1484 1489 1494 1498 1502 1505 1508 1510 1511 1513 1515 1517 1519 1520 1522 1523 1524 1525 1526 1527 1528 1529 1530 1530 1531 1531 1532 1533 1533 1533 1534 1534 1534 1535 1536 1537 1537 1538 1539 1540
1473 1472 1472 1474 1475 1476 1478 1480 1483 1486 1492 1496 1499 1502 1505 1507 1510 1511 1513 1515 1517 1519 1521 1522 1523 1524 1525 1526 1528 1529 1530 1531 1531 1531 1532 1533 1533 1534 1534 1535 1535 1536 1536 1537 1537 1538 1539 1540 1540
1473 1474 1474 1475 1476 1478 1479 1481 1485 1489 1493 1496 1500 1503 1505 1507 1509 1512 1514 1516 1518 1520 1521 1522 1523 1524 1525 1526 1528 1530 1530 1531 1532 1532 1532 1533 1533 1534 1535 1536 1536 1537 1537 1537 1538 1538 1539 1539 1540
1475 1475 1475 1475 1476 1478 1479 1483 1486 1491 1494 1497 1500 1503 1505 1507 1510 1512 1515 1517 1518 1520 1521 1522 1523 1524 1525 1527 1528 1529 1531 1531 1532 1532 1533 1533 1534 1534 1535 1536 1536 1537 1537 1537 1538 1538 1538 1539 1539
1476 1477 1476 1474 1474 1477 1479 1486 1488 1491 1494 1497 1500 1503 1505 1508 1510 1512 1514 1516 1518 1519 1521 1522 1523 1524 1525 1527 1528 1530 1530 1531 1532 1532 1533 1533 1534 1534 1535 1536 1536 1536 1537 1537 1538 1538 1538 1538 1539
1479 1483 1487 1475 1472 1474 1480 1494 1488 1490 1493 1496 1499 1502 1505 1508 1510 1512 1514 1516 1517 1519 1520 1522 1523 1524 1525 1526 1528 1529 1530 1531 1532 1532 1533 1533 1534 1534 1535 1535 1536 1536 1537 1537 1537 1537 1538 1538 1538
1484 1489 1488 1478 1470 1470 1477 1490 1487 1489 1491 1495 1498 1501 1504 1507 1509 1511 1513 1515 1517 1518 1520 1521 1523 1523 1525 1526 1527 1529 1530 1531 1532 1532 1532 1533 1533 1534 1535 1535 1535 1536 1536 1536 1537 1537 1537 1537 1538
1488 1485 1485 1480 1470 1470 1476 1483 1484 1486 1488 1493 1497 1500 1503 1506 1508 1510 1513 1515 1516 1518 1519 1521 1522 1523 1524 1526 1527 1528 1529 1530 1531 1532 1532 1532 1533 1533 1534 1534 1535 1535 1535 1536 1536 1536 1536 1536 1536
1473 1478 1480 1475 1467 1470 1476 1481 1481 1483 1486 1490 1495 1498 1501 1504 1507 1510 1512 1514 1516 1517 1519 1520 1521 1522 1524 1525 1526 1527 1528 1530 1531 1531 1531 1532 1532 1532 1533 1533 1534 1534 1534 1535 1535 1535 1535 1535 1535
1469 1475 1478 1474 1468 1471 1477 1479 1478 1481 1484 1488 1492 1496 1499 1503 1506 1509 1511 1513 1515 1516 1518 1519 1520 1521 1522 1524 1525 1526 1528 1529 1530 1530 1530 1531 1531 1531 1532 1532 1532 1532 1533 1533 1533 1534 1534 1534 1535
1470 1473 1476 1477 1472 1470 1476 1485 1481 1480 1482 1485 1488 1492 1496 1500 1504 1507 1509 1511 1513 1514 1516 1518 1519 1520 1521 1523 1524 1526 1527 1527 1528 1529 1529 1529 1530 1530 1530 1530 1531 1531 1531 1532 1532 1532 1533 1533 1534
1474 1465 1467 1471 1477 1482 1478 1497 1486 1481 1482 1483 1486 1489 1493 1497 1501 1504 1507 1509 1511 1513 1515 1516 1517 1518 1520 1521 1523 1524 1525 1526 1527 1527 1527 1528 1528 1528 1528 1529 1529 1529 1530 1530 1531 1531 1531 1532 1532
1468 1462 1465 1468 1474 1479 1476 1488 1491 1478 1482 1482 1484 1487 1491 1494 1498 1501 1504 1507 1510 1512 1513 1514 1516 1517 1518 1520 1521 1522 1523 1524 1525 1526 1526 1526 1527 1527 1527 1527 1527 1528 1528 1528 1529 1529 1529 1530 1530
1461 1464 1465 1466 1473 1491 1481 1485 1492 1477 1477 1478 1481 1486 1489 1493 1496 1500 1503 1506 1508 1510 1512 1513 1514 1515 1517 1518 1519 1520 1521 1522 1523 1523 1524 1524 1525 1525 1525 1525 1525 1526 1526 1526 1526 1527 1527 1528 1528
1463 1474 1487 1494 1496 1496 1475 1479 1485 1472 1471 1475 1479 1484 1488 1491 1495 1498 1501 1504 1507 1509 1510 1512 1512 1513 1515 1516 1517 1518 1519 1520 1521 1521 1521 1522 1522 1523 1522 1523 1523 1523 1523 1524 1524 1524 1525 1525 1525
1465 1469 1489 1503 1501 1492 1475 1481 1480 1470 1472 1475 1479 1483 1487 1491 1494 1497 1500 1502 1505 1507 1508 1509 1510 1511 1513 1514 1515 1516 1517 1518 1518 1519 1519 1520 1520 1520 1520 1520 1520 1521 1521 1521 1521 1522 1522 1523 1523
1466 1467 1463 1475 1480 1489 1484 1482 1477 1471 1472 1475 1478 1482 1486 1490 1493 1496 1498 1501 1503 1505 1506 1508 1509 1510 1510 1512 1513 1514 1515 1515 1516 1517 1517 1517 1517 1518 1518 1517 1517 1518 1519 1519 1519 1519 1519 1520 1520
1457 1460 1468 1479 1494 1496 1489 1488 1488 1480 1476 1475 1479 1482 1486 1490 1493 1495 1497 1500 1502 1503 1505 1506 1507 1507 1508 1509 1511 1512 1512 1513 1513 1514 1514 1515 1515 1515 1515 1515 1515 1516 1516 1516 1516 1516 1517 1517 1517
1461 1464 1468 1472 1474 1490 1496 1495 1474 1476 1474 1475 1479 1483 1486 1489 1492 1494 1496 1498 1500 1502 1503 1504 1505 1505 1507 1508 1509 1510 1510 1510 1511 1511 1511 1512 1512 1512 1512 1512 1513 1513 1513 1513 1513 1513 1513 1514 1514
1454 1459 1464 1479 1482 1479 1487 1492 1469 1471 1473 1475 1479 1483 1486 1489 1491 1493 1496 1498 1500 1501 1502 1503 1503 1504 1505 1506 1507 1507 1508 1508 1508 1508 1509 1509 1509 1509 1509 1509 1509 1510 1510 1510 1510 1510 1510 1510 1510